Regional Weather Roundup
Issued by NWS Grand Forks, ND

Home | Current Version | Previous Version | Text Only | Print | Product List | Glossary Off
Versions: 1 2 3 4 5 6 7 8 9 10 11 12 13 14 15 16 17 18 19 20 21 22 23 24 25 26 27 28 29 30 31 32 33 34 35 36 37 38 39 40 41 42 43 44 45 46 47 48 49 50

000
ASUS43 KFGF 211931
RWRFGF
PRAIRIE TO PINES  WEATHER ROUNDUP
NATIONAL WEATHER SERVICE EASTERN NORTH DAKOTA/GRAND FORKS ND
100 PM CST TUE FEB 21 2017

 **SATELLITE DATA USED TO AUGMENT SKY COVER AT AUTOMATED STATIONS**
 *****  WEATHER ACROSS EASTERN NORTH DAKOTA  *****

CITY           SKY/WX    TMP DP  RH WIND       PRES   REMARKS
GRAND FORKS    FAIR      42  32  67 W3        29.66F
GRAND FRKS AFB FAIR      42  37  84 N6        29.66F
DEVILS LAKE    FAIR      37  34  89 N6        29.65F
FARGO          FAIR      45  38  76 SW13      29.66F
WAHPETON ARPT    N/A     50  37  62 W7        29.67F
$$

 ***** WEATHER ACROSS CENTRAL AND WESTERN NORTH DAKOTA  *****

CITY           SKY/WX    TMP DP  RH WIND       PRES   REMARKS
BISMARCK       FAIR      51  35  54 NW5       29.68F
MINOT          FAIR      47  35  63 SW12      29.65S
JAMESTOWN      FAIR      45  37  73 W9        29.65F
MINOT AFB      FAIR      42  35  76 W6        29.64S
GARRISON         N/A     45  35  68 SW3       29.66S
WILLISTON      FAIR      41  32  70 SW9       29.66F
DICKINSON      CLOUDY    50  32  50 SW9       29.67S
HETTINGER      FAIR      58  30  34 W6        29.71F
$$

 *****  OTHER AIRPORT OBSERVATIONS IN OUR AREA  *****

CITY           SKY/WX    TMP DP  RH WIND       PRES   REMARKS
WALHALLA       NOT AVBL
GRAFTON AIRPOR FOG       32  32 100 N8        29.69F VSB<1/4 WCI  25
VALLEY CITY AR FAIR      45  41  87 W8        29.67S
CANDO          NOT AVBL
CAVALIER APRT  FOG       32  32 100 N3        29.68F VSB 1/4
GWINNER        FAIR      52  39  62 W9        29.68F
SHEYENNE NWR     N/A     51  36  56 W7        29.95
ROLLA          FAIR      36  36 100 SE5       29.65S
 ***** THE ABOVE OBSERVATIONS ARE NON NWS ARE NOT QUALITY
       CONTROLLED AND MAY MIS-REPORT RAIN FOR SNOW...
$$

  *****  WEATHER ACROSS NORTHERN MINNESOTA  *****

CITY           SKY/WX    TMP DP  RH WIND       PRES   REMARKS
FLAG ISLAND    CLOUDY    32  30  93 S3        29.69F FOG
WARROAD        CLOUDY    34  30  86 E5        29.69F FOG
ROSEAU         HAZE      34  28  80 E6        29.68F VSB<1/4
HALLOCK        FAIR      36  36 100 NE3       29.67F FOG
THF RVR FALLS  FAIR      42  37  82 E9        29.66F
BAUDETTE       CLOUDY    36  33  89 S7        29.71S
WASKISH        FAIR      45  43  93 NE7       29.66F
CROOKSTON      FAIR      43  37  81 SW6       29.66S
STEPHEN NDAWN    N/A     36  34  93 NE5         N/A
GREENBUSH NDAW   N/A     32  32 100 NE7         N/A
$$
  *****  WEATHER ACROSS CENTRAL AND WEST MINNESOTA  *****

CITY           SKY/WX    TMP DP  RH WIND       PRES   REMARKS
FOSSTON        FAIR      46  45  93 SW12      29.65F
BEMIDJI        FAIR      47  33  58 S8G16     29.64F
PARK RAPIDS    FAIR      45  33  63 S10       29.66F
ELBOW LAKE     FAIR      51  41  69 SW7       29.69F
WADENA         FAIR      48  37  66 SW12      29.66F
DETROIT LAKES  FAIR      45  37  76 SW9       29.66F
MOORHEAD       FAIR      43  37  81 SW7       29.67F
FERGUS FALLS   FAIR      48  39  71 SW7       29.71F
MORRIS MN      FAIR      52  45  76 SW6       29.69R
STAPLES        FAIR      48  37  66 SW8       29.67F
$$
  *****  WEATHER ELSEWHERE ACROSS MINNESOTA  *****

CITY           SKY/WX    TMP DP  RH WIND       PRES   REMARKS
DULUTH         FAIR      45  35  68 S8        29.74F
INTRNTL FALLS  CLOUDY    39  34  82 E5        29.71F
ELY            FAIR      43  34  70 SW6       29.73F
CLOQUET        FAIR      45  34  65 E7        29.72F
WHEATON        FAIR      54  37  54 SW3       29.69F
BRAINERD       FAIR      50  37  61 S14G22    29.69F
HIBBING        FAIR      40  36  86 E6        29.72F
ALEXANDRIA     FAIR      51  40  65 SW10      29.69F
SAINT CLOUD    FAIR      56  43  61 S13       29.72F
MINNEAPOLIS    FAIR      58  37  45 S14       29.77F
$$

  *****  WEATHER ACROSS SOUTH DAKOTA  *****

CITY           SKY/WX    TMP DP  RH WIND       PRES   REMARKS
SIOUX FALLS    FAIR      61  40  45 S13G20    29.75F
BROOKINGS      FAIR      56  39  53 SW8       29.73F
WATERTOWN      FAIR      51  39  63 SW8       29.72F
HURON          FAIR      64  38  38 VRB6      29.71F
SISSETON         N/A     55  41  59 W12       29.67F
ABERDEEN       FAIR      57  36  45 W6        29.70F
MITCHELL       FAIR      65  35  33 SW10      29.74F
PIERRE         FAIR      66  33  29 VRB5      29.71F
MOBRIDGE       FAIR      57  36  45 CALM      29.68F
RAPID CITY     FAIR      68  32  26 W33G41    29.72F
$$

  *****  SOME WEATHER IN NEARBY STATES *****

CITY           SKY/WX    TMP DP  RH WIND       PRES   REMARKS
GLASGOW MT     CLOUDY    45  35  68 W13       29.66F
GREAT FALLS MT CLOUDY    41  34  76 NE9       29.62S
CHEYENNE WY    FAIR      60  18  19 W33G49    30.04F
SCOTTSBLUFF NE FAIR      71  23  16 W35G49    29.88F
OMAHA NE       FAIR      66  39  37 S15       29.92F
DES MOINES IA  FAIR      63  41  44 SW6       29.93F
DAVENPORT IA   FAIR      61  44  53 VRB5      29.93F
CHICAGO IL     CLOUDY    62  54  74 SW9       29.91F
EAU CLAIRE WI  FAIR      51  37  58 S9        29.85F
LA CROSSE WI   FAIR      55  41  59 S8        29.89F
$$

  *****  SOME NATIONAL WEATHER *****

CITY           SKY/WX    TMP DP  RH WIND       PRES   REMARKS
LA GUARDIA NY  CLOUDY    47  28  47 S10       30.27F
RALEIGH NC     CLOUDY    65  34  31 VRB3      30.17F
ATLANTA GA     CLOUDY    68  55  63 SE9       30.02F
NEW ORLEANS LA PTSUNNY   69  58  67 N3        29.90F
OKLAHOMA CITY  FAIR      67  44  43 N13       30.00F
ALBUQUERQUE NM FAIR      59  33  37 CALM      30.33F
SALT LAKE CITY FAIR      60  36  40 S33G43    30.00F
LOS ANGELES CA PTSUNNY   61  58  90 W6        30.34S
BOISE ID       FAIR      54  30  40 SW15G25   29.91R
SEATTLE WA     CLOUDY    44  41  89 N9        29.89R
$$

*** WEATHER ACROSS MANITOBA...SASKATCHEWAN AND ONTARIO ***
                ***ONTARIO***

CITY           SKY/WX    TMP DP  RH WIND       PRES   REMARKS
GERALDTON      CLOUDY    36  30  80 W12G28    29.63R
THUNDER BAY    MOSUNNY   43  32  65 W14       29.73S
SIOUX LOOKOUT  CLOUDY    36  30  80 W8        29.67F
TORONTO        CLOUDY    43  30  61 SE5       29.94F
BIG TROUT LK   FLURRIES  28  25  86 W22G31    29.41R WCI  15
PICKLE LAKE    FLURRIES  34  28  80 W15G24    29.56S WCI  24
DRYDEN         CLOUDY    36  30  80 SW13      29.68S
KENORA         LGT SNOW  32  30  93 SW8       29.69F FOG     WCI  25
$$
                *** MANITOBA***

CITY           SKY/WX    TMP DP  RH WIND       PRES   REMARKS
BRANDON        PTSUNNY   36  30  80 E5        29.68S
DAUPHIN        MOSUNNY   39  30  70 SW6       29.68S
ISLAND LAKE    FLURRIES  27  25  93 W15G22    29.55S WCI  15
PILOT MOUND      N/A     36  32  87 SE2         N/A
THE PAS        CLOUDY    34  23  64 W13G20    29.65S WCI  25
THOMPSON       FLURRIES  19  14  79 W12G20    29.54S WCI   7
WINNIPEG       PTSUNNY   34  32  93 NW6       29.69F
LYNN LAKE      FLURRIES  18  14  86 W10       29.57R WCI   6
CHURCHILL      SNOW      12   9  85 NE23G31   29.45R VSB 1/2 WCI  -7
GILLAM         FLURRIES  12   5  73 NW20G29   29.44S WCI  -6
$$
                ***SASKATCHEWAN***

CITY           SKY/WX    TMP DP  RH WIND       PRES   REMARKS
ESTEVAN        PTSUNNY   36  32  87 SW9       29.64S
KINDERSLEY     PTSUNNY   34  27  75 E3        29.71R
LLOYDMINSTER   CLOUDY    32  28  86 SW9       29.71R WCI  24
PRINCE ALBERT  PTSUNNY   32  25  74 NW14      29.71S WCI  22
REGINA         PTSUNNY   36  32  87 NE8       29.66S
YORKTON        MOSUNNY   36  30  80 CALM      29.66F
N. BATTLEFORD  CLOUDY    34  25  69 SE3       29.74S
LA RONGE       CLOUDY    30  21  69 W12       29.66S WCI  21
SASKATOON      CLOUDY    34  25  69 N7        29.74S
SWIFT CURRENT  CLOUDY    32  30  93 N10       29.67R WCI  24
$$
NOTE: THESE ARE AUTOMATED STATIONS WITH LIMITED QUALITY CONTROL
      "FAIR" INDICATES FEW OR NO CLOUDS BELOW 12,000 FEET WITH NO
      SIGNIFICANT WEATHER AND/OR OBSTRUCTIONS TO VISIBILITY.
      SKY/WX - SKY CONDITION AND SIGNIFICANT WEATHER.
      TMP - AIR TEMPERATURE.    DP   - DEWPOINT TEMPERATURE.
      RH  - RELATIVE HUMIDITY.  PRES - PRESSURE.
      HX  - HEAT INDEX.         WCI  - WIND CHILL INDEX.
$




USA.gov is the U.S. government's official web portal to all federal, state and local government web resources and services.